Location: S�tio Afonso Gruber
(26.1760°S, 49.5250°W)
Time: 00:27:26
(UTC+00:00)

Cosmos 2016 Rocket - Pass Details

Date: 10 October 2020
Orbit: 946 x 1001 km, 83.0° (Epoch: 27 October)

Event Time Altitude Azimuth Distance (km) Brightness Sun altitude
Exits shadow 07:27:18 29° 300° (WNW) 1,726 4.7 -18.4°
Maximum altitude 07:29:30 37° 261° (W) 1,488 4.5 -17.9°
Drops below altitude 10° 07:35:21 10° 195° (SSW) 2,777 6.4 -16.7°
Sets 07:38:07 0° 186° (S) 3,738 7.2 -16.1°
